• In Netherlands
  • List of Countries
  • For 7 days
  • Water Temperature
  • Satellite Maps
  • Weather Map
  • Weather Widgets
  • user-avatar
    Login

    Hourly Weather Viedma

    Today, 26 April, Wednesday

    Time Temperature Precipitation Wind Pressure Humidity
    00:00 +11°C° 0.1 mm 7 mps 754 mmHg 60%
    01:00 +11°C° 0.1 mm 7 mps 754 mmHg 59%
    02:00 +11°C° 0.1 mm 8 mps 754 mmHg 59%
    03:00 +10°C° 0 mm 8 mps 754 mmHg 58%
    04:00 +10°C° 0 mm 8 mps 753 mmHg 58%
    05:00 +10°C° 0 mm 8 mps 753 mmHg 57%
    06:00 +11°C° 0 mm 8 mps 753 mmHg 57%
    07:00 +11°C° 0 mm 8 mps 753 mmHg 58%
    08:00 +11°C° 0 mm 8 mps 753 mmHg 58%
    09:00 +12°C° 0 mm 9 mps 753 mmHg 54%
    10:00 +13°C° 0 mm 10 mps 753 mmHg 51%
    11:00 +14°C° 0 mm 11 mps 753 mmHg 47%
    12:00 +14°C° 0 mm 11 mps 753 mmHg 47%
    13:00 +16°C° 0 mm 11 mps 753 mmHg 47%
    14:00 +16°C° 0 mm 11 mps 753 mmHg 46%
    15:00 +14°C° 0 mm 10 mps 753 mmHg 47%
    16:00 +14°C° 0 mm 10 mps 753 mmHg 49%
    17:00 +15°C° 0 mm 9 mps 753 mmHg 50%
    18:00 +13°C° 0 mm 8 mps 754 mmHg 52%
    19:00 +13°C° 0 mm 8 mps 754 mmHg 54%
    20:00 +12°C° 0 mm 7 mps 754 mmHg 56%
    21:00 +12°C° 0 mm 7 mps 754 mmHg 56%
    22:00 +12°C° 0 mm 7 mps 754 mmHg 57%
    23:00 +13°C° 0 mm 6 mps 754 mmHg 57%

    Tomorrow, 27 April, Thursday

    Time Temperature Precipitation Wind Pressure Humidity
    00:00 +12°C° 0 mm 7 mps 754 mmHg 56%
    01:00 +12°C° 0 mm 7 mps 754 mmHg 56%
    02:00 +12°C° 0 mm 7 mps 754 mmHg 56%
    03:00 +11°C° 0 mm 7 mps 754 mmHg 57%
    04:00 +11°C° 0 mm 7 mps 754 mmHg 58%
    05:00 +11°C° 0 mm 7 mps 753 mmHg 58%
    06:00 +11°C° 0 mm 7 mps 753 mmHg 55%
    07:00 +11°C° 0 mm 7 mps 753 mmHg 52%
    08:00 +11°C° 0 mm 7 mps 753 mmHg 49%
    09:00 +13°C° 0 mm 8 mps 753 mmHg 45%
    10:00 +16°C° 0 mm 10 mps 752 mmHg 42%
    11:00 +18°C° 0 mm 11 mps 752 mmHg 38%
    12:00 +19°C° 0 mm 11 mps 751 mmHg 38%
    13:00 +19°C° 0 mm 11 mps 750 mmHg 39%
    14:00 +21°C° 0 mm 12 mps 749 mmHg 40%
    15:00 +21°C° 0 mm 12 mps 749 mmHg 41%
    16:00 +21°C° 0 mm 11 mps 748 mmHg 43%
    17:00 +21°C° 0 mm 11 mps 748 mmHg 45%
    18:00 +19°C° 0 mm 12 mps 749 mmHg 48%
    19:00 +18°C° 0 mm 12 mps 749 mmHg 50%
    20:00 +18°C° 0 mm 12 mps 750 mmHg 53%
    21:00 +17°C° 0 mm 11 mps 751 mmHg 59%
    22:00 +16°C° 0 mm 10 mps 753 mmHg 64%
    23:00 +13°C° 0 mm 9 mps 754 mmHg 69%

    Day after tomorrow, 28 April, Friday

    Time Temperature Precipitation Wind Pressure Humidity
    00:00 +13°C° 0 mm 8 mps 755 mmHg 70%
    01:00 +14°C° 0 mm 6 mps 755 mmHg 72%
    02:00 +13°C° 0 mm 5 mps 756 mmHg 73%
    03:00 +13°C° 0 mm 5 mps 756 mmHg 72%
    04:00 +13°C° 0 mm 5 mps 757 mmHg 71%
    05:00 +12°C° 0 mm 5 mps 757 mmHg 71%
    06:00 +13°C° 0 mm 5 mps 757 mmHg 68%
    07:00 +13°C° 0 mm 5 mps 758 mmHg 65%
    08:00 +13°C° 0 mm 5 mps 758 mmHg 62%
    09:00 +15°C° 0 mm 5 mps 759 mmHg 55%
    10:00 +17°C° 0 mm 5 mps 759 mmHg 47%
    11:00 +19°C° 0 mm 5 mps 759 mmHg 40%
    12:00 +20°C° 0 mm 5 mps 759 mmHg 37%
    13:00 +21°C° 0 mm 5 mps 759 mmHg 34%
    14:00 +21°C° 0 mm 5 mps 759 mmHg 31%
    15:00 +20°C° 0 mm 4 mps 759 mmHg 35%
    16:00 +20°C° 0 mm 4 mps 758 mmHg 38%
    17:00 +19°C° 0 mm 3 mps 758 mmHg 41%
    18:00 +18°C° 0 mm 2 mps 758 mmHg 45%
    19:00 +17°C° 0 mm 2 mps 759 mmHg 49%
    20:00 +15°C° 0 mm 1 mps 759 mmHg 53%
    21:00 +15°C° 0 mm 2 mps 759 mmHg 52%
    22:00 +14°C° 0 mm 3 mps 759 mmHg 52%
    23:00 +14°C° 0 mm 3 mps 759 mmHg 51%

    29 April, Saturday

    Time Temperature Precipitation Wind Pressure Humidity
    00:00 +14°C° 0 mm 4 mps 759 mmHg 51%
    01:00 +14°C° 0 mm 4 mps 758 mmHg 51%
    02:00 +13°C° 0 mm 4 mps 758 mmHg 51%
    03:00 +13°C° 0 mm 5 mps 758 mmHg 52%
    04:00 +13°C° 0 mm 5 mps 758 mmHg 53%
    05:00 +14°C° 0 mm 6 mps 757 mmHg 54%
    06:00 +14°C° 0 mm 6 mps 757 mmHg 56%
    07:00 +14°C° 0 mm 7 mps 757 mmHg 59%
    08:00 +14°C° 0 mm 7 mps 757 mmHg 61%
    09:00 +16°C° 0 mm 8 mps 757 mmHg 54%
    10:00 +18°C° 0 mm 8 mps 758 mmHg 47%
    11:00 +21°C° 0 mm 9 mps 758 mmHg 40%
    12:00 +22°C° 0 mm 8 mps 757 mmHg 37%
    13:00 +23°C° 0 mm 8 mps 757 mmHg 34%
    14:00 +23°C° 0 mm 7 mps 757 mmHg 31%
    15:00 +22°C° 0 mm 6 mps 757 mmHg 32%
    16:00 +22°C° 0 mm 5 mps 756 mmHg 34%
    17:00 +21°C° 0 mm 4 mps 756 mmHg 35%
    18:00 +20°C° 0 mm 4 mps 757 mmHg 38%
    19:00 +19°C° 0 mm 4 mps 757 mmHg 41%
    20:00 +18°C° 0 mm 4 mps 757 mmHg 43%
    21:00 +17°C° 0 mm 5 mps 757 mmHg 45%
    22:00 +17°C° 0 mm 5 mps 757 mmHg 47%
    23:00 +17°C° 0 mm 5 mps 757 mmHg 48%

    30 April, Sunday

    Time Temperature Precipitation Wind Pressure Humidity
    00:00 +17°C° 0 mm 5 mps 757 mmHg 49%
    01:00 +17°C° 0 mm 5 mps 757 mmHg 50%
    02:00 +16°C° 0 mm 5 mps 757 mmHg 50%
    03:00 +16°C° 0 mm 5 mps 757 mmHg 52%
    04:00 +17°C° 0 mm 4 mps 757 mmHg 53%
    05:00 +15°C° 0 mm 4 mps 757 mmHg 55%
    06:00 +17°C° 0 mm 4 mps 758 mmHg 54%
    07:00 +17°C° 0 mm 4 mps 758 mmHg 54%
    08:00 +17°C° 0 mm 4 mps 758 mmHg 54%
    09:00 +19°C° 0 mm 4 mps 758 mmHg 49%
    10:00 +21°C° 0 mm 5 mps 758 mmHg 43%
    11:00 +23°C° 0 mm 5 mps 758 mmHg 38%
    12:00 +24°C° 0 mm 6 mps 757 mmHg 35%
    13:00 +26°C° 0 mm 6 mps 757 mmHg 32%
    14:00 +27°C° 0 mm 6 mps 756 mmHg 29%
    15:00 +26°C° 0 mm 6 mps 756 mmHg 31%
    16:00 +25°C° 0 mm 5 mps 756 mmHg 33%
    17:00 +23°C° 0 mm 4 mps 756 mmHg 35%
    18:00 +22°C° 0 mm 5 mps 756 mmHg 38%
    19:00 +21°C° 0 mm 5 mps 756 mmHg 42%
    20:00 +20°C° 0 mm 5 mps 756 mmHg 45%
    21:00 +20°C° 0 mm 6 mps 756 mmHg 47%
    22:00 +19°C° 0 mm 6 mps 756 mmHg 50%
    23:00 +18°C° 0 mm 7 mps 756 mmHg 53%

    1 May, Monday

    Time Temperature Precipitation Wind Pressure Humidity
    00:00 +18°C° 0 mm 7 mps 756 mmHg 55%
    01:00 +17°C° 0 mm 7 mps 756 mmHg 57%
    02:00 +17°C° 0 mm 7 mps 756 mmHg 58%
    03:00 +17°C° 0 mm 7 mps 755 mmHg 60%
    04:00 +16°C° 0 mm 7 mps 755 mmHg 61%
    05:00 +16°C° 0 mm 7 mps 755 mmHg 62%
    06:00 +16°C° 0 mm 7 mps 755 mmHg 62%
    07:00 +16°C° 0 mm 7 mps 755 mmHg 62%
    08:00 +16°C° 0 mm 7 mps 755 mmHg 62%
    09:00 +18°C° 0 mm 7 mps 755 mmHg 55%
    10:00 +20°C° 0 mm 7 mps 755 mmHg 49%
    11:00 +22°C° 0 mm 7 mps 755 mmHg 43%
    12:00 +23°C° 0 mm 7 mps 755 mmHg 40%
    13:00 +26°C° 0 mm 7 mps 755 mmHg 36%
    14:00 +27°C° 0 mm 6 mps 754 mmHg 32%
    15:00 +26°C° 0 mm 6 mps 754 mmHg 34%
    16:00 +25°C° 0 mm 5 mps 754 mmHg 36%
    17:00 +23°C° 0 mm 5 mps 754 mmHg 38%
    18:00 +23°C° 0 mm 5 mps 755 mmHg 40%
    19:00 +22°C° 0 mm 5 mps 755 mmHg 42%
    20:00 +22°C° 0 mm 6 mps 755 mmHg 43%
    21:00 +21°C° 0 mm 6 mps 756 mmHg 45%
    22:00 +20°C° 0 mm 6 mps 756 mmHg 48%
    23:00 +20°C° 0 mm 6 mps 756 mmHg 50%
    Show more